Location: Bauersach School (historical)
(38.0926°N, 89.4806°W)
Time: 02:00:02
(UTC+00:00)

SKYMED 2 - Pass Details

Date: 11 December 2025
Orbit: 622 x 623 km, 97.9° (Epoch: 15 January)

Event Time Altitude Azimuth Distance (km) Brightness Sun altitude
Exits shadow 23:27:13 - 26° (NNE) 2,468 6.2 -9.5°
Reaches altitude 10° 23:28:28 10° 32° (NNE) 1,998 5.7 -9.7°
Maximum altitude 23:32:26 34° 98° (E) 1,031 4.2 -10.5°
Drops below altitude 10° 23:36:21 10° 163° (SSE) 1,983 6.2 -11.2°
Sets 23:38:41 0° 173° (S) 2,884 7.2 -11.6°
